When you browse on this site, cookies collect data to enhance your experience and personalize the content and advertising you see.
Visit our Privacy Policy to learn more. By continuing to use the site, you agree to this use of cookies and data.
  • In Switzerland
  • List of Countries
  • For 7 days
  • Water Temperature
  • Weather Map
  • Weather Widgets
  • user-avatar
    Login

    Hourly Weather Cardiff

    Today, 30 March, Monday

    Time Temperature Precipitation Wind Pressure Humidity
    00:00 -1°C° 0 mm 5 mps 779 mmHg 76%
    01:00 -2°C° 0 mm 5 mps 778 mmHg 76%
    02:00 -2°C° 0 mm 5 mps 778 mmHg 76%
    03:00 -2°C° 0 mm 5 mps 777 mmHg 76%
    04:00 -2°C° 0 mm 4 mps 777 mmHg 76%
    05:00 -2°C° 0 mm 4 mps 777 mmHg 76%
    06:00 -2°C° 0 mm 4 mps 776 mmHg 76%
    07:00 0°C° 0 mm 4 mps 776 mmHg 73%
    08:00 +2°C° 0 mm 5 mps 776 mmHg 71%
    09:00 +5°C° 0 mm 5 mps 775 mmHg 68%
    10:00 +5°C° 0 mm 6 mps 775 mmHg 68%
    11:00 +7°C° 0 mm 6 mps 775 mmHg 68%
    12:00 +7°C° 0 mm 6 mps 774 mmHg 68%
    13:00 +7°C° 0.1 mm 6 mps 774 mmHg 68%
    14:00 +7°C° 0.1 mm 6 mps 773 mmHg 68%
    15:00 +7°C° 0.1 mm 6 mps 773 mmHg 69%
    16:00 +7°C° 0 mm 6 mps 773 mmHg 72%
    17:00 +5°C° 0 mm 6 mps 773 mmHg 75%
    18:00 +6°C° 0 mm 5 mps 772 mmHg 78%
    19:00 +4°C° 0 mm 6 mps 773 mmHg 81%
    20:00 +3°C° 0 mm 6 mps 773 mmHg 85%
    21:00 +2°C° 0 mm 6 mps 773 mmHg 88%
    22:00 +2°C° 0 mm 6 mps 773 mmHg 89%
    23:00 +1°C° 0 mm 6 mps 773 mmHg 91%

    Tomorrow, 31 March, Tuesday

    Time Temperature Precipitation Wind Pressure Humidity
    00:00 +1°C° 0 mm 6 mps 773 mmHg 92%
    01:00 -1°C° 0 mm 6 mps 773 mmHg 92%
    02:00 -1°C° 0 mm 6 mps 773 mmHg 92%
    03:00 -1°C° 0 mm 6 mps 773 mmHg 92%
    04:00 -1°C° 0 mm 6 mps 773 mmHg 93%
    05:00 -1°C° 0 mm 5 mps 773 mmHg 93%
    06:00 -1°C° 0 mm 5 mps 773 mmHg 93%
    07:00 +1°C° 0 mm 6 mps 773 mmHg 88%
    08:00 +2°C° 0 mm 6 mps 773 mmHg 82%
    09:00 +3°C° 0 mm 7 mps 773 mmHg 76%
    10:00 +4°C° 0 mm 7 mps 773 mmHg 72%
    11:00 +7°C° 0 mm 6 mps 773 mmHg 68%
    12:00 +8°C° 0 mm 6 mps 772 mmHg 64%
    13:00 +8°C° 0 mm 5 mps 772 mmHg 63%
    14:00 +8°C° 0 mm 5 mps 772 mmHg 63%
    15:00 +9°C° 0 mm 5 mps 771 mmHg 63%
    16:00 +8°C° 0 mm 4 mps 771 mmHg 68%
    17:00 +7°C° 0 mm 4 mps 771 mmHg 72%
    18:00 +6°C° 0 mm 4 mps 771 mmHg 76%
    19:00 +5°C° 0 mm 4 mps 771 mmHg 79%
    20:00 +4°C° 0 mm 3 mps 771 mmHg 83%
    21:00 +3°C° 0 mm 3 mps 771 mmHg 86%
    22:00 +2°C° 0 mm 3 mps 771 mmHg 87%
    23:00 +2°C° 0 mm 3 mps 770 mmHg 87%

    Day after tomorrow, 1 April, Wednesday

    Time Temperature Precipitation Wind Pressure Humidity
    00:00 +1°C° 0 mm 3 mps 770 mmHg 88%
    01:00 +1°C° 0 mm 3 mps 770 mmHg 88%
    02:00 0°C° 0 mm 3 mps 769 mmHg 89%
    03:00 +1°C° 0 mm 2 mps 769 mmHg 89%
    04:00 +1°C° 0 mm 2 mps 768 mmHg 89%
    05:00 +1°C° 0 mm 2 mps 768 mmHg 89%
    06:00 +1°C° 0 mm 2 mps 768 mmHg 89%
    07:00 +3°C° 0 mm 2 mps 768 mmHg 82%
    08:00 +5°C° 0 mm 1 mps 768 mmHg 75%
    09:00 +7°C° 0 mm 1 mps 767 mmHg 69%
    10:00 +8°C° 0 mm 1 mps 767 mmHg 67%
    11:00 +8°C° 0 mm 1 mps 767 mmHg 65%
    12:00 +8°C° 0 mm 2 mps 767 mmHg 64%
    13:00 +8°C° 0 mm 2 mps 766 mmHg 63%
    14:00 +8°C° 0 mm 2 mps 766 mmHg 63%
    15:00 +8°C° 0 mm 2 mps 766 mmHg 63%
    16:00 +8°C° 0 mm 2 mps 765 mmHg 66%
    17:00 +7°C° 0 mm 2 mps 765 mmHg 69%
    18:00 +7°C° 0 mm 2 mps 765 mmHg 72%
    19:00 +6°C° 0 mm 2 mps 765 mmHg 74%
    20:00 +6°C° 0 mm 2 mps 765 mmHg 75%
    21:00 +5°C° 0 mm 2 mps 765 mmHg 77%
    22:00 +5°C° 0 mm 2 mps 765 mmHg 79%
    23:00 +4°C° 0 mm 2 mps 765 mmHg 81%

    2 April, Thursday

    Time Temperature Precipitation Wind Pressure Humidity
    00:00 +3°C° 0 mm 2 mps 765 mmHg 84%
    01:00 +3°C° 0 mm 2 mps 764 mmHg 85%
    02:00 +3°C° 0 mm 2 mps 764 mmHg 86%
    03:00 +2°C° 0 mm 3 mps 763 mmHg 88%
    04:00 +4°C° 0 mm 2 mps 763 mmHg 88%
    05:00 +4°C° 0 mm 2 mps 763 mmHg 89%
    06:00 +5°C° 0 mm 2 mps 763 mmHg 90%
    07:00 +5°C° 0 mm 3 mps 762 mmHg 85%
    08:00 +7°C° 0 mm 3 mps 762 mmHg 81%
    09:00 +9°C° 0 mm 3 mps 762 mmHg 77%
    10:00 +8°C° 0 mm 4 mps 762 mmHg 76%
    11:00 +9°C° 0 mm 5 mps 762 mmHg 75%
    12:00 +9°C° 0 mm 5 mps 761 mmHg 75%
    13:00 +9°C° 0 mm 6 mps 761 mmHg 75%
    14:00 +9°C° 0 mm 6 mps 761 mmHg 75%
    15:00 +9°C° 0 mm 6 mps 760 mmHg 75%
    16:00 +9°C° 0 mm 6 mps 760 mmHg 78%
    17:00 +8°C° 0 mm 5 mps 760 mmHg 81%
    18:00 +8°C° 0 mm 5 mps 760 mmHg 83%
    19:00 +7°C° 0 mm 4 mps 760 mmHg 87%
    20:00 +6°C° 0 mm 4 mps 760 mmHg 90%
    21:00 +5°C° 0 mm 3 mps 760 mmHg 94%
    22:00 +5°C° 0 mm 3 mps 760 mmHg 94%
    23:00 +4°C° 0 mm 3 mps 761 mmHg 94%

    3 April, Friday

    Time Temperature Precipitation Wind Pressure Humidity
    00:00 +5°C° 0 mm 2 mps 761 mmHg 94%
    01:00 +5°C° 0 mm 2 mps 761 mmHg 94%
    02:00 +4°C° 0 mm 2 mps 761 mmHg 93%
    03:00 +4°C° 0 mm 2 mps 761 mmHg 93%
    04:00 +4°C° 0 mm 2 mps 761 mmHg 92%
    05:00 +3°C° 0 mm 2 mps 761 mmHg 92%
    06:00 +3°C° 0 mm 2 mps 762 mmHg 91%
    07:00 +6°C° 0 mm 1 mps 762 mmHg 85%
    08:00 +7°C° 0 mm 1 mps 762 mmHg 80%
    09:00 +9°C° 0 mm 1 mps 763 mmHg 74%
    10:00 +9°C° 0 mm 1 mps 763 mmHg 73%
    11:00 +10°C° 0 mm 1 mps 763 mmHg 72%
    12:00 +10°C° 0 mm 1 mps 763 mmHg 71%
    13:00 +10°C° 0 mm 1 mps 763 mmHg 71%
    14:00 +10°C° 0 mm 1 mps 763 mmHg 71%
    15:00 +11°C° 0 mm 1 mps 763 mmHg 71%
    16:00 +10°C° 0 mm 1 mps 763 mmHg 75%
    17:00 +10°C° 0 mm 1 mps 763 mmHg 78%
    18:00 +9°C° 0 mm 1 mps 763 mmHg 82%
    19:00 +8°C° 0 mm 1 mps 763 mmHg 84%
    20:00 +7°C° 0 mm 1 mps 764 mmHg 86%
    21:00 +6°C° 0 mm 1 mps 764 mmHg 88%
    22:00 +6°C° 0 mm 1 mps 764 mmHg 89%
    23:00 +6°C° 0 mm 1 mps 764 mmHg 89%

    4 April, Saturday

    Time Temperature Precipitation Wind Pressure Humidity
    00:00 +5°C° 0 mm 2 mps 764 mmHg 89%
    01:00 +6°C° 0 mm 2 mps 764 mmHg 90%
    02:00 +6°C° 0 mm 2 mps 764 mmHg 91%
    03:00 +6°C° 0 mm 2 mps 764 mmHg 92%
    04:00 +6°C° 0 mm 2 mps 764 mmHg 92%
    05:00 +5°C° 0 mm 2 mps 764 mmHg 92%
    06:00 +5°C° 0 mm 2 mps 764 mmHg 92%
    07:00 +5°C° 0 mm 3 mps 764 mmHg 88%
    08:00 +7°C° 0 mm 3 mps 764 mmHg 84%
    09:00 +8°C° 0 mm 3 mps 764 mmHg 79%
    10:00 +9°C° 0 mm 3 mps 764 mmHg 75%
    11:00 +10°C° 0 mm 3 mps 764 mmHg 70%
    12:00 +11°C° 0 mm 3 mps 764 mmHg 66%
    13:00 +13°C° 0.1 mm 2 mps 764 mmHg 65%
    14:00 +13°C° 0.1 mm 2 mps 764 mmHg 65%
    15:00 +13°C° 0.1 mm 2 mps 764 mmHg 65%
    16:00 +12°C° 0.1 mm 2 mps 764 mmHg 69%
    17:00 +12°C° 0.1 mm 1 mps 764 mmHg 73%
    18:00 +11°C° 0.1 mm 1 mps 764 mmHg 78%
    19:00 +10°C° 0 mm 1 mps 764 mmHg 80%
    20:00 +9°C° 0 mm 1 mps 765 mmHg 83%
    21:00 +7°C° 0 mm 2 mps 765 mmHg 86%
    22:00 +7°C° 0 mm 1 mps 765 mmHg 87%
    23:00 +7°C° 0 mm 1 mps 765 mmHg 88%
    Show more